Temperature
26 23 22 23 23 23 23 22 21 21 21 20 18 18 17 18 18 17 17 18 18 18 18 18 18 18 18 18 18 18 17 17 17 17 16 16 15 15 15 14 14 14 14 14
23 23 24 25 25 24 23 22 21 21 21 20 18 17 17 17 17 17 18 18 18 18 18 18 18 18 18 18 18 17 17 17 16 16 15 15 15 14 14 14 13 13 13 13
24 24 26 26 25 24 23 21 21 20 20 19 18 17 17 17 17 18 18 19 19 19 19 19 18 18 18 18 18 17 17 16 16 15 15 14 14 14 14 13 13 13 13 13
24 25 26 25 24 24 22 23 23 21 19 17 18 17 16 16 17 18 18 19 19 19 19 19 19 18 18 18 17 17 17 16 15 15 14 14 13 13 12 12 12 12 13 13
24 25 25 25 25 25 23 23 22 21 17 16 17 16 16 16 16 17 18 19 19 20 20 19 19 19 18 18 18 17 16 16 15 14 14 13 13 12 12 12 12 12 12 12
24 25 25 26 26 25 24 21 19 17 16 16 16 17 17 16 16 17 18 19 20 20 20 20 19 19 18 18 17 17 16 15 15 14 14 13 12 12 11 11 11 11 11 11
23 25 26 26 25 24 23 20 19 19 17 16 16 17 16 17 17 18 18 19 20 20 20 20 19 19 18 18 17 16 16 15 14 14 13 12 12 11 11 11 10 10 10 10
23 23 25 26 26 25 24 21 20 20 18 16 16 17 17 18 19 19 19 20 20 20 20 19 19 18 18 17 17 16 15 14 14 13 12 12 11 11 10 10 10 10 10 9
22 23 26 27 27 26 25 22 21 18 17 16 16 17 18 19 19 20 20 20 20 20 19 19 19 18 18 17 16 15 14 14 13 12 12 11 11 11 10 10 10 9 9 9
23 23 24 26 26 26 24 23 19 18 18 18 18 18 17 19 19 19 19 20 20 19 19 19 18 18 17 16 16 15 14 13 13 12 11 11 11 10 10 10 9 9 9 9
23 22 23 24 25 25 25 23 19 17 17 17 17 18 19 18 19 18 18 20 20 19 19 19 18 18 17 16 15 14 13 13 12 11 11 11 10 10 10 9 9 9 9 8
22 20 21 23 24 25 24 23 20 19 19 17 17 17 20 18 19 19 20 20 20 19 19 18 18 17 16 15 14 13 13 12 12 11 11 10 10 10 9 9 9 9 8 8
22 20 20 21 21 23 24 24 20 17 17 17 17 19 19 19 19 20 20 20 19 19 18 18 17 16 15 14 14 13 12 12 11 11 11 10 10 10 9 9 9 8 8 8
22 20 20 21 21 23 25 24 22 19 18 19 19 19 19 18 18 19 20 20 19 18 18 17 16 15 15 14 13 13 12 11 11 11 10 10 10 9 9 9 8 8 8 8
22 22 23 23 24 25 25 25 24 21 19 19 19 18 18 17 17 19 20 19 18 18 17 16 16 15 14 13 13 12 12 11 11 10 10 10 9 9 9 9 8 8 8 8
21 22 23 22 24 24 24 25 24 24 23 21 19 19 18 19 20 19 19 18 18 17 17 16 15 15 14 13 12 12 11 11 11 10 10 10 9 9 9 8 8 8 8 8
20 21 21 20 21 23 23 24 24 24 23 21 20 19 18 18 18 19 18 18 18 17 17 16 15 14 13 13 12 12 11 11 10 10 10 9 9 9 8 8 8 8 8 8
20 19 18 19 20 22 21 23 24 23 22 21 19 18 18 19 19 19 19 18 18 17 17 16 15 14 13 13 12 11 11 11 10 10 9 9 9 8 8 8 8 8 8 8
20 19 19 18 20 21 22 24 23 21 20 20 19 18 19 18 17 17 18 18 18 17 16 16 15 14 13 12 12 11 11 10 10 10 9 9 8 8 8 8 8 8 8 8
19 19 19 19 20 20 21 23 24 20 20 21 20 19 20 18 15 16 19 18 17 17 16 15 14 14 13 12 11 11 10 10 10 9 9 9 8 8 8 8 8 8 8 8
21 20 19 19 19 20 22 24 24 21 20 21 22 22 21 19 18 20 19 18 18 17 16 15 15 14 13 12 11 11 10 10 9 9 9 9 8 8 8 8 8 8 8 8
20 19 19 18 19 20 22 24 22 21 23 23 23 22 22 22 21 20 19 18 18 17 16 15 15 14 13 12 11 10 10 10 9 9 9 9 8 8 7 7 8 8 8 8
20 19 18 18 19 22 25 25 26 25 24 23 23 23 22 21 21 20 19 19 18 17 16 15 14 13 13 12 11 10 10 9 9 9 9 9 8 8 8 7 8 8 8 8
20 21 20 20 20 22 25 26 26 25 25 24 24 23 22 22 21 20 19 19 18 17 16 15 14 13 13 12 11 10 10 9 9 9 9 8 8 8 8 8 8 8 8 8
20 21 20 19 20 23 25 26 26 25 25 24 24 23 23 22 21 20 20 19 18 17 16 15 14 13 12 12 11 10 10 9 9 9 9 8 8 8 8 8 8 8 8 8
19 21 20 19 22 20 24 26 25 25 25 24 24 23 23 22 22 21 20 19 18 17 16 15 14 13 12 12 11 10 10 9 9 9 8 8 8 8 8 8 9 9 9 8
Wind_Speed
0 3 3 5 5 4 2 2 2 2 3 7 9 7 4 3 3 1 1 3 5 6 6 7 7 7 6 5 5 5 5 3 3 3 3 3 4 5 5 4 6 6 6 5
4 3 8 6 3 4 3 3 1 1 4 6 8 6 2 1 2 5 6 6 7 7 7 7 7 7 7 6 6 6 6 4 4 2 1 1 1 2 2 3 5 8 8 8
3 5 1 1 1 2 3 7 7 5 4 6 6 3 1 3 3 5 7 7 8 10 10 9 9 9 7 7 8 7 6 5 4 3 1 2 3 3 4 4 5 6 9 9
1 3 2 2 3 5 4 8 11 10 7 2 1 2 4 3 3 5 7 7 9 9 9 9 8 8 8 7 6 6 6 5 4 3 2 1 0 2 3 3 4 7 7 8
4 3 1 2 5 5 5 6 8 8 6 3 1 2 3 1 4 6 8 8 10 10 10 9 8 7 6 5 5 6 5 4 3 3 3 2 1 3 3 4 5 6 6 7
4 3 2 4 3 7 10 8 8 6 4 3 1 1 3 4 6 6 8 8 10 9 9 8 5 4 3 4 4 5 5 3 3 3 2 2 3 3 4 5 5 5 5 5
7 5 2 2 4 4 6 6 3 3 4 1 2 1 6 7 7 9 9 9 9 8 6 4 5 5 4 5 4 4 4 3 3 3 3 3 4 3 4 4 4 4 4 4
3 6 5 1 3 4 3 8 6 4 4 1 2 3 7 6 7 7 8 6 4 4 5 7 7 6 5 5 4 3 3 2 3 3 4 4 4 3 3 4 4 5 4 5
3 4 6 3 0 4 3 2 6 7 5 3 2 4 7 5 3 4 5 5 6 7 8 7 6 6 5 4 4 4 4 3 3 4 4 4 4 4 5 5 5 5 5 6
5 2 5 5 7 6 6 5 7 5 4 3 2 4 5 6 6 5 6 8 8 7 7 7 6 5 4 4 3 3 3 3 4 4 4 4 4 5 5 5 6 7 6 6
3 3 5 5 2 0 3 5 6 5 6 6 4 5 6 10 9 8 8 9 9 8 7 5 5 4 4 3 3 2 3 3 4 5 5 5 5 5 5 6 7 7 7 7
2 5 1 5 5 2 4 6 7 5 1 4 5 5 4 9 9 10 9 8 8 8 6 6 5 4 3 3 3 4 4 5 5 5 5 5 6 6 6 7 8 8 8 8
4 6 4 8 9 6 2 4 6 7 5 5 5 4 2 7 8 8 9 9 8 8 7 4 4 4 4 5 5 5 6 6 6 5 5 5 6 6 7 8 8 8 8 9
5 5 5 5 8 6 2 4 6 7 5 5 7 8 6 7 8 8 9 10 9 8 7 5 4 4 5 6 6 6 6 6 6 5 5 6 7 8 8 8 8 8 8 8
5 2 2 4 6 5 4 4 7 7 9 8 9 10 11 11 11 11 9 9 7 7 6 5 4 4 5 6 6 6 6 6 5 5 6 7 8 8 7 8 8 8 8 9
4 2 3 6 8 9 7 3 5 6 6 7 9 6 8 8 7 7 8 8 7 6 5 4 4 4 5 6 6 5 6 6 5 6 7 7 7 7 7 8 8 8 9 9
3 4 2 4 8 7 5 3 4 5 5 9 8 8 7 6 8 8 8 8 7 6 6 5 5 5 6 6 5 5 5 5 5 6 7 7 7 7 8 9 9 9 9 9
7 5 4 1 6 3 9 5 6 7 4 7 9 8 9 9 7 7 9 9 8 8 6 5 5 5 5 4 4 4 4 5 6 7 7 7 7 8 9 9 9 10 9 9
8 8 5 3 2 6 8 4 5 7 3 5 10 9 8 7 4 2 7 8 9 8 7 6 5 4 4 5 5 4 5 5 6 7 7 7 7 9 9 10 11 10 9 10
5 6 6 4 4 6 8 5 6 9 1 5 9 10 9 9 2 5 8 8 9 7 5 5 4 3 3 5 4 3 5 6 7 7 8 7 8 9 10 11 11 10 9 10
2 2 3 5 6 7 8 5 5 3 8 9 10 10 10 9 8 7 8 9 8 7 6 5 3 2 4 5 3 4 6 7 8 7 7 8 8 9 10 9 9 10 10 10
5 3 4 4 3 7 8 4 6 10 7 9 10 11 10 10 9 9 10 10 9 7 6 5 3 4 5 4 3 5 7 7 7 7 7 8 9 9 10 9 10 10 9 9
3 7 6 7 8 9 8 10 10 9 9 10 11 11 12 11 10 10 10 10 9 8 6 4 4 4 5 5 4 6 7 6 6 6 8 9 10 9 9 9 10 10 8 7
6 2 2 4 9 9 10 8 7 10 11 12 12 12 12 11 11 11 10 9 8 6 6 4 4 4 5 6 5 6 6 5 5 7 8 8 9 10 9 8 8 8 8 8
8 4 3 6 9 7 7 8 9 9 10 10 10 12 14 13 11 11 10 10 9 7 5 5 5 5 7 6 6 6 5 4 5 7 8 8 8 9 9 9 8 9 9 9
6 6 5 8 10 7 8 9 8 9 10 12 12 11 11 12 13 12 11 10 9 8 6 5 5 6 6 6 6 5 5 4 5 7 7 7 8 8 8 9 11 13 12 14
Wind_Direction
287 113 217 224 182 167 110 83 74 51 58 70 76 75 58 59 80 96 216 193 166 163 169 168 173 169 160 151 141 137 126 111 87 59 42 24 353 340 342 340 343 342 335 331
5 261 234 211 132 93 80 93 211 46 74 93 93 77 58 141 212 204 208 203 185 177 181 188 193 190 183 177 174 169 160 143 127 125 141 175 268 308 321 333 342 341 334 326
220 251 292 8 89 127 178 179 194 167 96 73 107 73 240 233 222 222 207 200 191 187 191 196 197 199 193 191 190 180 172 159 155 150 111 22 12 355 349 338 331 324 324 321
299 281 47 23 282 164 201 204 180 160 127 67 111 193 248 252 243 222 218 209 203 201 199 203 204 200 196 198 185 172 169 164 166 152 132 132 105 289 278 285 301 313 321 323
270 273 297 221 232 170 182 157 141 133 118 98 33 130 281 262 245 230 223 218 211 210 202 200 201 196 186 174 161 157 153 160 176 177 171 170 230 248 275 299 320 325 326 330
262 267 209 213 198 142 127 96 79 70 83 67 304 109 279 227 224 228 230 232 222 214 199 198 191 158 136 126 127 139 151 181 205 206 209 214 249 273 298 312 319 318 317 322
341 331 311 142 88 94 118 111 73 21 30 350 289 291 262 244 237 225 229 237 228 205 188 167 141 124 125 129 137 148 161 198 229 236 253 257 261 263 272 282 280 292 303 307
8 326 307 301 163 171 174 139 150 186 183 203 307 265 267 259 242 229 231 231 207 154 136 132 137 138 140 144 148 158 174 215 247 256 269 274 271 255 258 261 263 273 273 276
194 276 300 299 67 107 59 52 153 124 100 100 254 285 299 282 251 215 200 170 143 138 136 139 143 146 153 152 161 173 182 217 252 263 269 270 263 252 259 270 271 274 274 279
177 252 317 341 41 30 115 116 71 85 120 116 216 223 221 220 213 189 158 149 147 146 143 142 149 161 168 171 180 188 194 218 247 262 262 263 261 264 266 272 278 277 277 278
93 109 330 1 56 38 45 55 89 95 129 138 190 253 220 197 190 169 165 161 161 163 161 165 171 177 178 182 194 214 234 246 265 267 264 270 272 270 270 269 269 269 269 271
63 110 329 291 287 214 138 145 130 117 31 124 143 261 271 170 167 157 163 172 174 170 173 177 179 187 203 219 235 244 249 255 258 257 260 263 266 271 273 271 269 266 265 265
88 87 35 349 343 351 99 150 140 126 109 116 136 245 241 146 154 164 170 178 180 179 178 181 195 217 233 241 251 252 254 258 262 262 263 270 275 276 274 272 272 270 266 265
108 97 147 199 242 267 259 168 151 122 131 162 176 178 190 176 176 188 188 187 186 186 185 193 219 244 253 255 256 254 261 259 262 263 267 273 274 273 272 273 275 273 269 266
97 105 276 271 298 331 302 212 170 154 168 164 185 177 199 195 190 194 194 187 173 178 186 194 212 237 255 264 267 263 261 265 265 269 273 272 275 278 279 280 280 279 274 276
93 127 11 333 323 329 317 278 173 158 152 140 138 181 209 198 188 189 181 163 161 176 184 187 206 239 262 269 270 266 267 271 271 274 277 280 285 288 286 285 284 284 280 277
132 124 91 299 316 352 318 255 153 142 153 151 168 190 180 174 183 179 167 161 172 185 191 207 233 248 260 263 257 259 264 274 284 285 286 288 290 292 290 294 296 288 285 280
152 132 138 231 8 316 261 260 135 118 100 133 137 156 169 173 173 177 176 173 185 192 203 228 242 253 259 256 257 260 274 290 294 293 292 293 296 295 294 293 291 288 283 280
157 146 143 144 219 274 291 281 150 123 69 145 141 157 163 149 114 249 211 189 191 198 204 217 227 231 249 264 258 274 295 299 299 295 292 293 296 298 299 297 295 291 288 285
109 120 140 164 193 242 254 256 128 99 122 209 161 163 162 143 135 256 225 196 193 197 201 209 221 234 270 271 264 283 294 298 293 288 288 292 296 297 298 295 293 291 287 284
58 63 168 202 222 253 242 213 112 129 230 206 179 174 169 176 200 211 191 189 192 192 194 188 197 245 265 269 264 282 290 286 280 284 293 298 298 297 294 291 291 292 292 291
193 189 223 185 207 258 240 192 178 213 202 185 183 182 181 193 198 184 178 184 185 185 189 186 204 255 270 269 258 277 282 276 284 293 301 301 299 301 308 300 299 295 292 291
187 190 192 188 215 235 222 210 212 179 179 191 189 189 177 177 183 181 182 183 186 187 196 202 211 255 277 271 250 266 270 278 293 303 304 302 302 300 297 296 298 300 295 289
290 228 181 260 265 254 244 239 220 191 192 194 188 182 175 177 181 179 178 183 188 193 199 203 213 255 274 270 260 253 265 277 293 301 301 301 303 305 305 300 294 293 292 290
257 294 309 290 287 303 287 243 225 214 202 194 189 184 182 175 177 177 181 186 190 194 200 197 210 239 257 263 267 265 264 271 292 297 297 299 299 300 305 302 295 290 280 271
245 235 223 247 250 227 246 248 229 208 206 198 189 190 187 178 177 176 181 184 184 189 190 197 216 235 252 261 267 264 254 258 286 298 301 300 303 304 303 305 309 299 287 286
Height
1500 1508 1513 1510 1508 1510 1512 1518 1521 1519 1517 1521 1528 1531 1531 1530 1530 1533 1535 1535 1534 1534 1535 1535 1535 1534 1534 1534 1534 1534 1533 1532 1531 1529 1527 1525 1523 1521 1519 1517 1515 1514 1512 1510
1506 1509 1502 1500 1501 1504 1509 1518 1521 1520 1518 1522 1530 1532 1532 1530 1531 1531 1533 1534 1534 1533 1534 1534 1534 1533 1533 1533 1532 1532 1531 1530 1528 1526 1524 1522 1520 1518 1515 1513 1512 1510 1508 1507
1507 1503 1498 1498 1502 1505 1509 1516 1519 1521 1521 1523 1530 1538 1535 1531 1530 1531 1531 1532 1532 1532 1531 1531 1531 1531 1531 1530 1530 1529 1528 1527 1525 1523 1522 1519 1517 1514 1512 1510 1508 1506 1504 1503
1501 1496 1497 1499 1501 1503 1513 1504 1508 1516 1528 1539 1536 1547 1538 1533 1531 1530 1530 1530 1530 1530 1529 1529 1529 1529 1529 1528 1528 1527 1526 1524 1522 1521 1519 1516 1513 1510 1508 1506 1504 1502 1500 1499
1502 1495 1496 1499 1496 1496 1504 1500 1506 1516 1531 1541 1541 1546 1542 1535 1533 1529 1527 1527 1527 1527 1527 1527 1527 1527 1527 1527 1526 1525 1523 1522 1520 1518 1516 1513 1510 1508 1505 1503 1501 1498 1497 1495
1497 1492 1491 1491 1489 1492 1498 1508 1518 1527 1535 1549 1545 1546 1544 1536 1530 1526 1524 1524 1525 1525 1525 1526 1526 1526 1526 1525 1524 1523 1521 1520 1518 1516 1513 1510 1507 1505 1502 1499 1497 1495 1493 1491
1503 1494 1489 1488 1494 1496 1501 1519 1536 1541 1551 1553 1544 1544 1540 1526 1522 1522 1521 1521 1522 1523 1524 1524 1525 1525 1524 1524 1522 1521 1519 1517 1515 1513 1510 1507 1504 1501 1499 1496 1494 1491 1489 1487
1516 1513 1492 1487 1490 1497 1499 1510 1531 1541 1550 1553 1546 1545 1533 1519 1518 1518 1519 1520 1522 1523 1523 1523 1523 1523 1522 1521 1520 1518 1516 1514 1512 1509 1506 1504 1501 1498 1496 1493 1490 1487 1485 1483
1516 1511 1490 1485 1484 1487 1497 1504 1507 1528 1543 1553 1549 1540 1527 1517 1517 1517 1518 1519 1521 1521 1521 1521 1521 1521 1520 1518 1516 1515 1513 1510 1508 1505 1503 1500 1498 1495 1492 1489 1486 1483 1481 1478
1504 1510 1497 1488 1486 1488 1491 1496 1512 1528 1545 1552 1547 1541 1537 1522 1519 1517 1517 1518 1519 1520 1520 1520 1519 1518 1517 1515 1513 1511 1509 1507 1504 1502 1499 1496 1494 1491 1488 1485 1482 1479 1477 1474
1499 1510 1506 1496 1497 1498 1496 1500 1512 1526 1532 1548 1553 1543 1517 1516 1515 1516 1516 1516 1517 1518 1518 1517 1516 1515 1514 1512 1510 1508 1506 1503 1500 1498 1495 1492 1489 1486 1483 1481 1478 1475 1472 1470
1498 1510 1516 1504 1492 1488 1492 1499 1509 1526 1530 1536 1544 1541 1509 1510 1511 1512 1514 1515 1515 1515 1515 1514 1514 1513 1511 1509 1507 1504 1502 1499 1496 1494 1491 1488 1485 1482 1479 1476 1473 1470 1467 1465
1497 1513 1527 1523 1512 1497 1495 1496 1502 1514 1527 1534 1542 1535 1511 1510 1511 1511 1512 1513 1513 1513 1512 1512 1511 1509 1507 1505 1503 1500 1497 1495 1492 1489 1487 1484 1480 1477 1474 1470 1467 1465 1462 1459
1494 1511 1523 1529 1521 1504 1498 1495 1498 1508 1526 1526 1525 1522 1514 1511 1510 1510 1510 1510 1510 1510 1510 1509 1508 1506 1504 1501 1499 1496 1493 1491 1488 1485 1482 1479 1475 1472 1468 1465 1462 1459 1456 1453
1495 1507 1503 1503 1496 1493 1492 1491 1493 1500 1507 1516 1514 1515 1512 1508 1507 1507 1507 1507 1507 1508 1507 1506 1504 1502 1500 1498 1495 1492 1489 1487 1484 1480 1477 1474 1470 1467 1463 1460 1456 1453 1450 1447
1496 1503 1503 1505 1495 1493 1492 1487 1488 1491 1494 1501 1507 1510 1503 1503 1504 1504 1504 1504 1505 1505 1504 1503 1501 1499 1496 1493 1491 1488 1485 1482 1479 1476 1472 1469 1465 1461 1458 1454 1450 1446 1443 1440
1499 1503 1511 1515 1503 1499 1503 1489 1487 1489 1488 1494 1504 1503 1500 1503 1502 1501 1501 1502 1502 1501 1500 1499 1497 1494 1492 1489 1486 1483 1481 1478 1475 1471 1467 1464 1460 1456 1452 1448 1444 1440 1437 1434
1496 1504 1513 1516 1514 1517 1503 1481 1480 1487 1489 1488 1492 1495 1496 1498 1498 1498 1498 1498 1498 1497 1496 1494 1492 1490 1488 1485 1482 1480 1477 1474 1470 1466 1462 1459 1455 1450 1446 1442 1438 1435 1431 1428
1486 1497 1510 1519 1519 1512 1494 1482 1481 1489 1495 1490 1491 1494 1495 1495 1497 1497 1496 1495 1494 1493 1492 1491 1489 1486 1484 1481 1478 1475 1472 1469 1465 1461 1458 1454 1449 1445 1440 1436 1433 1429 1426 1422
1485 1490 1504 1513 1516 1518 1498 1480 1478 1485 1498 1489 1488 1489 1491 1493 1498 1495 1491 1491 1490 1489 1488 1487 1485 1482 1480 1477 1474 1471 1468 1464 1460 1457 1453 1449 1444 1440 1435 1431 1427 1424 1421 1417
1495 1498 1504 1510 1513 1502 1483 1476 1478 1496 1494 1483 1483 1483 1485 1486 1488 1486 1486 1487 1486 1486 1485 1483 1481 1479 1476 1473 1470 1467 1463 1460 1456 1452 1448 1444 1440 1435 1431 1427 1423 1420 1416 1412
1497 1502 1504 1507 1510 1502 1475 1475 1480 1480 1473 1475 1477 1478 1479 1480 1481 1481 1482 1482 1482 1482 1481 1479 1477 1475 1472 1469 1466 1463 1459 1456 1452 1448 1444 1439 1435 1431 1426 1422 1418 1415 1412 1407
1490 1490 1492 1493 1492 1474 1469 1469 1468 1468 1469 1470 1471 1472 1473 1475 1476 1477 1477 1478 1478 1478 1477 1475 1473 1471 1468 1465 1462 1459 1455 1451 1447 1443 1439 1435 1430 1426 1422 1418 1414 1411 1407 1403
1483 1477 1480 1480 1474 1467 1465 1464 1464 1463 1463 1464 1465 1467 1468 1469 1470 1471 1472 1473 1473 1473 1472 1471 1469 1467 1464 1461 1458 1455 1451 1447 1443 1439 1435 1430 1426 1422 1418 1414 1411 1407 1403 1399
1480 1477 1478 1477 1469 1464 1462 1461 1460 1460 1460 1460 1461 1462 1462 1463 1464 1465 1466 1467 1468 1468 1468 1467 1465 1463 1460 1457 1454 1450 1447 1443 1439 1435 1430 1426 1422 1418 1414 1410 1407 1403 1400 1396
1473 1474 1476 1475 1465 1463 1459 1457 1457 1456 1455 1455 1455 1456 1457 1458 1458 1460 1461 1462 1462 1463 1463 1462 1460 1458 1456 1453 1450 1447 1443 1439 1435 1430 1426 1422 1418 1414 1410 1406 1402 1399 1396 1392